Weather History for Ithaca, NY

Change the Weather History Date:

Wednesday, October 1, 2014

  Actual Average Record
Temperature  
Mean Temperature 62 °F -  
Max Temperature 77 °F 65 °F 91 °F (1953)
Min Temperature 51 °F 42 °F 27 °F (1947)
Degree Days  
Heating Degree Days 4    
Growing Degree Days 12 (Base 50)    
Moisture  
Dew Point 58 °F    
Average Humidity 93    
Maximum Humidity 100    
Minimum Humidity 64    
Precipitation  
Precipitation 0.02 in - - ()
Sea Level Pressure  
Sea Level Pressure 30.03 in    
Wind  
Wind Speed 2 mph (East)    
Max Wind Speed 7 mph    
Max Gust Speed -    
Visibility 5 miles    
Events Fog , Rain , Thunderstorm    
Averages and records for this station are not official NWS values.
T = Trace of Precipitation, MM = Missing Value Source: NWS Daily Summary

Daily Weather History Graph

Daily Weather History Graph

Search for Another Location

Airport:

Trip Planner

Search our weather history database for the weather conditions in past years. The results will help you decide how hot, cold, wet, or windy it might be!

Date:

Astronomy

Oct. 01, 2014 Rise Set
Actual Time 7:02 AM EDT 6:47 PM EDT
Civil Twilight 6:34 AM EDT 7:15 PM EDT
Nautical Twilight 6:02 AM EDT 7:47 PM EDT
Astronomical Twilight 5:29 AM EDT 8:20 PM EDT
Moon 2:07 PM EDT (10/1) No Moon Set
Length of Visible Light 12h 40m
Length of Day
11h 44m
Waxing Crescent, 48% of the Moon is Illuminated
Oct 1
Waxing Crescent
Oct 1
First Quarter
Oct 8
Full
Oct 15
Last Quarter
Oct 23
New

Hourly Weather History & Observations

Time (EDT) Temp. Dew Point Humidity Pressure Visibility Wind Dir Wind Speed Gust Speed Precip Events Conditions
12:30 AM 59.0 °F 57.2 °F 94% 29.99 in 1.8 mi Calm Calm - N/A   Mostly Cloudy
12:34 AM 57.2 °F 57.2 °F 100% 29.99 in 1.0 mi Calm Calm - N/A   Mostly Cloudy
12:45 AM 57.2 °F 57.2 °F 100% 30.00 in 1.8 mi NNW 4.6 mph - N/A   Clear
12:56 AM 56.8 °F 54.9 °F 93% 29.90 in 10.0 mi East 5.8 mph - N/A   Clear
1:09 AM 57.2 °F 57.2 °F 100% 30.01 in 0.2 mi West 4.6 mph - N/A Fog Fog
1:19 AM 60.8 °F 59.0 °F 94% 30.01 in 0.5 mi Calm Calm - N/A Fog Fog
1:26 AM 60.8 °F 60.8 °F 100% 30.01 in 1.0 mi Calm Calm - N/A   Mostly Cloudy
1:31 AM 60.8 °F 60.8 °F 100% 30.01 in 0.5 mi Calm Calm - N/A Fog Fog
1:40 AM 60.8 °F 60.8 °F 100% 30.01 in 0.2 mi Calm Calm - N/A Fog Fog
1:56 AM 59.9 °F 59.0 °F 97% 30.00 in 1.5 mi Calm Calm - N/A   Overcast
2:10 AM 59.0 °F 59.0 °F 100% 30.02 in 0.5 mi Calm Calm - N/A Fog Fog
2:18 AM - - N/A% - - Calm Calm - N/A   Unknown
2:45 AM 57.2 °F 57.2 °F 100% 30.01 in 0.2 mi Calm Calm - N/A Fog Fog
2:56 AM 56.8 °F 56.8 °F 100% 30.00 in 0.2 mi Calm Calm - N/A Fog Fog
3:03 AM 55.4 °F 55.4 °F 100% 30.01 in 0.2 mi Calm Calm - N/A Fog Fog
3:29 AM 55.4 °F 53.6 °F 94% 30.01 in 0.8 mi Calm Calm - N/A   Clear
3:33 AM 55.4 °F 55.4 °F 100% 30.01 in 1.2 mi East 3.5 mph - N/A   Mostly Cloudy
3:35 AM 55.4 °F 55.4 °F 100% 30.01 in 2.0 mi ENE 4.6 mph - N/A   Partly Cloudy
3:48 AM 55.4 °F 55.4 °F 100% 30.01 in 3.0 mi ESE 3.5 mph - N/A   Mostly Cloudy
3:56 AM 55.9 °F 55.9 °F 100% 30.00 in 3.0 mi East 3.5 mph - N/A   Overcast
4:56 AM 56.8 °F 56.8 °F 100% 30.01 in 5.0 mi East 3.5 mph - N/A   Overcast
5:56 AM 55.9 °F 55.9 °F 100% 30.03 in 4.0 mi East 3.5 mph - N/A   Mostly Cloudy
6:22 AM 55.4 °F 55.4 °F 100% 30.03 in 5.0 mi Calm Calm - N/A   Mostly Cloudy
6:56 AM 54.0 °F 54.0 °F 100% 30.04 in 4.0 mi Calm Calm - N/A Fog Mostly Cloudy
7:14 AM 53.6 °F 53.6 °F 100% 30.05 in 3.0 mi Calm Calm - N/A Fog Partly Cloudy
7:28 AM 51.8 °F 51.8 °F 100% 30.05 in 1.0 mi Calm Calm - N/A   Mostly Cloudy
7:43 AM 53.6 °F 53.6 °F 100% 30.06 in 1.0 mi Calm Calm - N/A   Mostly Cloudy
8:56 AM 59.9 °F 59.0 °F 97% 30.08 in 4.0 mi Calm Calm - N/A Fog Mostly Cloudy
9:56 AM 61.0 °F 59.9 °F 96% 30.09 in 4.0 mi Calm Calm - N/A   Mostly Cloudy
10:34 AM 64.4 °F 60.8 °F 88% 30.10 in 6.0 mi Calm Calm - N/A   Mostly Cloudy
10:56 AM 64.9 °F 59.0 °F 81% 30.10 in 6.0 mi Calm Calm - N/A   Haze
11:56 AM 66.9 °F 61.0 °F 81% 30.10 in 6.0 mi WNW 4.6 mph - N/A   Haze
12:56 PM 68.0 °F 59.9 °F 75% 30.08 in 7.0 mi Calm Calm - N/A   Mostly Cloudy
1:56 PM 70.9 °F 59.9 °F 68% 30.06 in 10.0 mi Calm Calm - N/A   Mostly Cloudy
2:56 PM 72.9 °F 59.9 °F 64% 30.05 in 10.0 mi WSW 6.9 mph - N/A   Mostly Cloudy
3:56 PM 68.0 °F 61.0 °F 78% 30.05 in 10.0 mi Calm Calm - N/A   Mostly Cloudy
4:56 PM 70.9 °F 59.0 °F 66% 29.89 in 10.0 mi ESE 4.6 mph - N/A Thunderstorm Thunderstorm
5:40 PM 62.6 °F 60.8 °F 94% 29.93 in 10.0 mi Calm Calm - 0.02 in Rain , Thunderstorm Light Thunderstorms and Rain
5:56 PM 64.9 °F 63.0 °F 93% 30.07 in 10.0 mi Calm Calm - N/A   Mostly Cloudy
6:56 PM 61.0 °F 59.9 °F 96% 29.92 in 10.0 mi ESE 5.8 mph - 0.00 in   Overcast
7:56 PM 63.0 °F 61.0 °F 93% 29.96 in 8.0 mi North 5.8 mph - N/A   Overcast
8:56 PM 59.9 °F 56.8 °F 90% 30.11 in 10.0 mi East 3.5 mph - N/A   Scattered Clouds
9:56 PM 59.9 °F 55.9 °F 87% 30.11 in 10.0 mi East 5.8 mph - N/A   Scattered Clouds
10:56 PM 56.8 °F 54.9 °F 93% 30.12 in 10.0 mi East 3.5 mph - N/A   Clear
11:32 PM 60.8 °F 60.8 °F 100% 30.00 in 2.0 mi SE 3.5 mph - N/A   Mostly Cloudy
11:56 PM 55.9 °F 54.0 °F 93% 30.12 in 10.0 mi East 5.8 mph - N/A   Clear